Location: La Sioule Rivi�re
(46.3664°N, 3.3197°E)
Time: 12:00:44
(UTC+00:00)

ARGOS - Pass Details

Date: 29 October 2020
Orbit: 820 x 835 km, 98.4° (Epoch: 23 November)

Event Time Altitude Azimuth Distance (km) Brightness Sun altitude
Exits shadow 18:17:20 26° 118° (ESE) 1,590 4.1 -18.0°
Maximum altitude 18:19:49 41° 67° (ENE) 1,193 3.5 -18.4°
Drops below altitude 10° 18:24:53 10° 359° (N) 2,457 5.6 -19.3°
Sets 18:27:22 0° 352° (N) 3,395 6.5 -19.7°
